Buenos Aires, Argentina

8:55 AM America en Enero 24, 2019 (GMT +0000)
Jorge Newbery Aeroparque

Tiempo Historia de SABE - Enero, 2019

Change the Weather History Date:

Sábado, Enero 12, 2019

  Actual Average Record
Temperature  
Temperatura media 74 ° F -  
Temperatura máxima 80 ° F 82 ° F 93 ° F (2015)
Temperatura mínima 69 ° F 68 ° F 61 ° F (2014)
Cooling Degree Days 10    
Growing Degree Days 24 (Base 50)    
Moisture  
Punto de rocío 63 ° F    
Average Humidity 66    
Maximum Humidity 83    
Minimum Humidity 45    
Precipitación  
Precipitación 0.00 pul 0.13 pul - ()
Presión al nivel del mar  
Presión al nivel del mar 29.99 pul    
Viento  
Velocidad del viento 11 mph ()    
Velocidad máxima del viento 17 mph    
Max Gust Speed -    
Visibilidad 6.1 Millas    
Eventos      
Averages and records for this station are not official NWS values.
T = Trace of Precipitation, MM = Missing Value Source: Averaged Metar Reports

Daily Weather History Graph

Daily Weather History Graph

Search for Another Location

Airport or City:

Astronomía

Jan. 12, 2019 Salida Puesta
Hora real 5:53 AM ART 8:09 PM ART
Crepúsculo civil 5:24 AM ART 8:38 PM ART
Crepúsculo náutico 4:49 AM ART 9:13 PM ART
Crepúsculo astronómico 4:11 AM ART 9:52 PM ART
Luna 11:37 AM ART (1/12) Sin puesta de luna
Horas de luz 15h 13m
Horas de luz
14h 16m
Creciente, 34% of the Moon is Illuminated
Ene 12
Creciente
Ene 14
Cuarto creciente
Ene 21
Luna llena
Ene 27
Cuarto menguante
Feb 4
Nueva

Hourly Weather History & Observations

Hora (ART) Temp. Punto de rocío Humedad Presión Visibilidad Wind Dir Velocidad del viento Velocidad de ráfagas Precip Eventos Condiciones
12:00 AM 72 ° F 60 ° F 57% 30.05 pul 6 mi Este 11.5 mph - -   Despejado
12:00 AM 71.6 ° F 60.8 ° F 69% 30.04 pul - Este 12.7 mph - N/A   Despejado
1:00 AM 71.6 ° F 59.0 ° F 64% 30.04 pul - Este 17.3 mph - N/A   Despejado
2:00 AM 69.8 ° F 59.0 ° F 68% 30.01 pul - Este 13.8 mph - N/A   Despejado
3:00 AM 71 ° F 61 ° F 63% 30.03 pul 6 mi ENE 15.0 mph - -   Muy nublado
3:00 AM 69.8 ° F 60.8 ° F 73% 30.01 pul - ENE 16.1 mph - N/A   Despejado
4:00 AM 69.8 ° F 60.8 ° F 73% 30.01 pul - NE 15.0 mph - N/A   Despejado
5:00 AM 71.6 ° F 62.6 ° F 73% 30.01 pul - NNE 13.8 mph - N/A   Despejado
6:00 AM 71 ° F 63 ° F 68% 30.04 pul 6 mi NNE 15.0 mph - -   Muy nublado
6:00 AM 69.8 ° F 62.6 ° F 78% 30.01 pul - Norte 13.8 mph - N/A   Despejado
7:00 AM 71.6 ° F 64.4 ° F 78% 30.04 pul - Norte 11.5 mph - N/A   Despejado
8:00 AM 71.6 ° F 64.4 ° F 78% 30.01 pul - Norte 9.2 mph - N/A   Despejado
9:00 AM 73 ° F 65 ° F 70% 30.05 pul 6 mi NNE 8.1 mph - -   Parcialmente nublado
9:00 AM 73.4 ° F 66.2 ° F 78% 30.04 pul 6.2 mi NNE 8.1 mph - N/A   Nubes dispersas
10:00 AM 73.4 ° F 64.4 ° F 73% 30.04 pul 6.2 mi Norte 9.2 mph - N/A   Parcialmente nublado
11:00 AM 75.2 ° F 66.2 ° F 73% 30.04 pul 6.2 mi Norte 6.9 mph - N/A   Nubes dispersas
12:00 PM 77 ° F 66 ° F 60% 30.03 pul 6 mi NNE 8.1 mph - -   Parcialmente nublado
12:00 PM 77.0 ° F 66.2 ° F 69% 30.01 pul 6.2 mi NNE 8.1 mph - N/A   Nubes dispersas
1:00 PM 78.8 ° F 64.4 ° F 61% 30.01 pul 6.2 mi NNE 6.9 mph - N/A   Nubes dispersas
2:00 PM 78.8 ° F 60.8 ° F 54% 29.98 pul 6.2 mi NE 8.1 mph - N/A   Parcialmente nublado
3:00 PM 80 ° F 62 ° F 45% 29.98 pul 6 mi NE 5.8 mph - -   Nubes dispersas
3:00 PM 78.8 ° F 59.0 ° F 51% 29.98 pul 6.2 mi NE 5.8 mph - N/A   Parcialmente nublado
4:00 PM 78.8 ° F 62.6 ° F 57% 29.95 pul 6.2 mi ENE 8.1 mph - N/A   Parcialmente nublado
5:00 PM 78.8 ° F 64.4 ° F 61% 29.92 pul 6.2 mi Este 10.4 mph - N/A   Parcialmente nublado
6:00 PM 79 ° F 64 ° F 51% 29.92 pul 6 mi ESE 12.7 mph - -   Nubes dispersas
6:00 PM 78.8 ° F 64.4 ° F 61% 29.92 pul 6.2 mi Este 12.7 mph - N/A   Parcialmente nublado
7:00 PM 78.8 ° F 64.4 ° F 61% 29.89 pul - ESE 13.8 mph - N/A   Despejado
8:00 PM 75.2 ° F 64.4 ° F 69% 29.92 pul 6.2 mi ESE 12.7 mph - N/A   Parcialmente nublado
9:00 PM 76 ° F 65 ° F 60% 29.92 pul 6 mi ESE 12.7 mph - -   Nubes dispersas
9:00 PM 75.2 ° F 66.2 ° F 73% 29.92 pul - ESE 12.7 mph - N/A   Despejado
10:00 PM 75.2 ° F 66.2 ° F 73% 29.92 pul - ESE 12.7 mph - N/A   Despejado
11:00 PM 75.2 ° F 69.8 ° F 83% 29.92 pul - ESE 11.5 mph - N/A   Despejado